Home   Weather   Wedel   Past weeks

Flag for Germany Past Weather in Wedel, Schleswig-Holstein, Germany — Yesterday and Last 2 Weeks

Now
64 °F

Passing clouds.


Feels Like: 64 °F
Forecast: 54 / 68 °F
Wind: 5 mph from Southeast

Location: Hamburg-Finkenwerder

Current Time: Aug 31, 2016 at 10:13:37 AM

Latest Report: Aug 31, 2016 at 9:20 AM


Visibility: N/A

Pressure: 30.18 "Hg

Humidity: 73%

Dew Point: 55 °F

Location of WedelLocation

Past Weather in Wedel — Graph

°F

Wedel Temperature Yesterday

Maximum temperature yesterday: 72 °F (at 4:50 PM)
Minimum temperature yesterday: 52 °F (at 5:50 AM)
Average temperature yesterday: 64 °F

High & Low Weather Summary for the Past Weeks

 TemperatureHumidityPressure
High90 °F (Aug 25, 2:50 PM)100% (Aug 16, 8:20 AM)30.30 "Hg (Aug 16, 8:20 AM)
Low48 °F (Aug 17, 5:20 AM)33% (Aug 25, 4:50 PM)29.80 "Hg (Aug 19, 6:20 PM)
Average68 °F74%30.06 "Hg
* Reported Aug 16 8:20 AM — Aug 31 8:50 AM, Wedel, Weather by CustomWeather, © 2016

Note: Actual official high and low records may vary slightly from our data, if they occured in-between our weather recording intervals... More about our weather records

Advertising

Wedel Weather History for the Previous 24 Hours

Scroll right to see more
 ConditionsComfort  
Time TempWeatherWind HumidityBarometerVisibility
8:50 AM
Wed, Aug 31
63 °FPassing clouds.5 mph83%30.21 "HgN/A
8:20 AM61 °FPassing clouds.5 mph88%30.21 "HgN/A
7:50 AM59 °FSunny.3 mph94%30.21 "Hg10 mi
7:20 AM57 °FClear.3 mph100%30.21 "Hg10 mi
6:50 AM55 °FClear.3 mph100%30.21 "Hg10 mi
6:20 AM55 °FClear.3 mph100%30.21 "Hg10 mi
5:50 AM55 °FClear.3 mph100%30.21 "Hg10 mi
8:20 PM
Tue, Aug 30
66 °FPassing clouds.5 mph68%30.27 "HgN/A
7:50 PM68 °FPassing clouds.6 mph64%30.27 "HgN/A
7:20 PM70 °FPassing clouds.6 mph57%30.24 "HgN/A
6:50 PM70 °FPassing clouds.5 mph57%30.24 "HgN/A
6:20 PM70 °FPassing clouds.8 mph57%30.24 "HgN/A
5:50 PM70 °FScattered clouds.7 mph57%30.27 "HgN/A
5:20 PM70 °FScattered clouds.9 mph57%30.27 "HgN/A
4:50 PM72 °FScattered clouds.7 mph53%30.27 "HgN/A
4:20 PM70 °FScattered clouds.9 mph60%30.27 "HgN/A
3:50 PM70 °FScattered clouds.9 mph57%30.27 "HgN/A
3:20 PM70 °FScattered clouds.9 mph60%30.27 "HgN/A
2:50 PM70 °FScattered clouds.9 mph57%30.30 "HgN/A
2:20 PM70 °FScattered clouds.9 mph64%30.30 "HgN/A
1:50 PM68 °FScattered clouds.8 mph60%30.30 "HgN/A
1:20 PM68 °FPartly sunny.10 mph64%30.30 "HgN/A
12:50 PM68 °FPartly sunny.9 mph69%30.30 "HgN/A
12:20 PM68 °FPartly sunny.10 mph69%30.30 "HgN/A
11:50 AM68 °FPartly sunny.12 mph73%30.30 "HgN/A
11:20 AM66 °FScattered clouds.13 mph73%30.30 "HgN/A
10:50 AM64 °FScattered clouds.12 mph83%30.30 "HgN/A
10:20 AM63 °FPassing clouds.12 mph88%30.27 "HgN/A
Weather by CustomWeather, © 2016

See weather overviewHow to use our weather pages